GFSFLT2_con_sbcape_015.txt.gz
CAPE
0 0 0 0 0 0 1 0 0 63 54 35 40 48 57 75 76 106 113 120 130 126 159 167 156 140 174
0 0 0 0 0 0 18 4 7 9 12 23 51 57 66 80 83 83 94 106 105 107 136 147 136 137 138
0 0 0 0 0 0 0 0 0 0 15 19 39 73 81 71 67 71 76 77 69 69 68 77 89 100 123
6 8 0 0 2 0 0 0 0 0 5 19 37 32 25 45 46 37 37 43 51 58 58 59 70 87 105
0 0 2 0 0 0 0 0 0 2 0 0 0 0 0 11 10 14 25 41 47 57 79 87 71 78 85
0 0 0 0 0 0 22 1 2 0 1 0 0 0 0 0 6 24 44 51 49 55 71 80 70 75 126
0 0 0 2 25 0 0 5 7 2 10 3 0 0 0 0 5 12 24 43 51 52 51 73 89 84 79
0 1 5 0 0 1 3 11 6 3 1 1 0 0 0 0 4 10 15 34 41 43 53 54 55 105 115
43 21 10 11 12 2 0 1 0 0 0 1 0 0 0 0 0 1 15 33 28 29 38 40 49 55 41
0 0 0 0 9 1 1 0 0 0 0 0 0 2 0 0 0 0 0 1 14 16 20 33 36 31 13
0 0 0 0 0 1 2 0 0 0 0 0 0 0 0 0 0 0 0 0 0 0 5 22 35 39 10
2 2 0 0 0 0 2 0 0 1 0 0 0 0 0 0 0 0 0 0 0 0 0 6 26 40 53
2 1 0 0 0 0 0 0 0 0 0 0 0 0 0 0 0 0 0 0 0 0 0 0 0 0 0
0 0 0 0 0 0 0 0 0 0 0 0 0 0 0 0 0 0 0 0 0 0 0 0 0 0 0
0 0 0 0 0 0 0 0 0 0 0 0 0 0 0 0 0 0 0 0 0 0 0 0 0 0 0
0 0 0 0 0 0 0 0 0 0 0 0 0 0 0 0 0 0 0 0 0 0 0 0 0 0 0
0 0 0 0 0 0 0 0 0 0 0 0 0 0 0 0 0 0 0 0 0 0 0 0 0 0 0

GFSFLT2_con_sbcape_018.txt.gz
CAPE
0 0 0 0 0 0 0 0 1 78 82 83 79 89 89 90 91 96 110 111 116 119 118 112 133 146 161
0 0 0 0 0 0 1 27 2 0 14 49 66 69 79 83 91 96 88 85 84 100 106 121 113 121 137
0 0 0 0 0 0 0 0 0 3 20 26 41 54 69 89 74 75 74 78 86 86 74 93 100 109 128
0 0 2 0 0 0 0 0 0 0 8 13 36 30 30 40 45 40 44 51 60 63 62 62 64 74 81
2 0 0 0 0 0 0 0 1 2 0 0 0 0 0 6 6 13 21 37 51 53 74 94 100 91 87
0 0 0 0 0 0 8 7 1 0 2 0 0 0 0 0 5 22 36 48 50 57 72 90 85 89 109
0 0 0 0 2 1 1 3 5 1 6 5 0 0 0 0 7 17 25 41 48 50 59 81 94 86 86
0 0 4 1 0 0 1 6 2 1 1 1 0 0 0 0 5 11 16 36 34 43 46 55 60 52 48
35 21 7 9 10 0 0 2 0 0 0 0 0 0 0 0 0 2 15 24 24 35 33 38 52 54 47
0 0 0 0 6 0 2 0 0 0 0 0 0 1 0 0 0 0 0 1 9 18 26 31 36 11 5
0 0 0 0 0 0 2 0 0 0 0 0 0 0 0 0 0 0 0 0 0 0 7 21 30 30 9
1 1 0 0 0 0 0 0 1 0 0 0 0 0 0 0 0 0 0 0 0 0 0 3 16 28 43
1 0 0 0 0 0 0 0 0 0 0 0 0 0 0 0 0 0 0 0 0 0 0 0 0 0 0
0 0 0 0 0 0 0 0 0 0 0 0 0 0 0 0 0 0 0 0 0 0 0 0 0 0 0
0 0 0 0 0 0 0 0 0 0 0 0 0 0 0 0 0 0 0 0 0 0 0 2 0 0 0
0 0 0 0 0 0 0 0 0 0 0 0 0 0 0 0 0 0 0 0 1 0 0 1 0 0 0
0 0 0 0 0 0 0 0 0 0 0 0 0 0 0 0 0 0 0 0 1 0 0 0 0 0 0

GFSFLT2_con_sbcape_021.txt.gz
CAPE
2 3 2 2 2 12 23 23 33 33 55 56 52 59 59 69 82 94 99 102 111 123 145 165 177 187 163
5 7 1 2 8 27 30 16 13 5 14 20 42 51 56 65 74 86 90 95 93 97 110 114 121 134 132
11 0 16 35 14 4 1 0 0 5 10 19 33 37 56 64 63 66 73 73 75 73 73 87 101 108 116
17 33 17 3 4 6 5 3 18 10 7 17 21 21 29 32 32 31 36 46 60 66 73 78 92 86 83
31 20 14 7 3 7 15 26 26 26 11 14 13 8 10 14 13 16 23 33 42 51 69 82 81 85 96
34 20 9 3 9 22 42 28 15 3 11 13 14 11 10 7 7 22 32 41 47 54 63 77 77 93 100
17 4 11 12 32 40 30 29 20 17 15 17 6 9 2 0 5 14 29 38 45 47 50 63 64 69 74
10 15 37 34 24 22 29 30 20 10 6 22 7 9 5 3 5 7 14 26 34 42 54 59 51 49 59
27 28 8 6 9 18 22 18 13 5 3 16 3 22 13 4 0 1 7 14 22 25 31 37 37 39 42
0 0 0 0 4 3 17 17 23 13 0 10 23 17 7 0 0 1 0 0 7 15 24 39 45 30 32
0 0 0 0 0 3 8 16 12 15 1 16 19 16 14 20 3 2 3 0 9 15 13 19 29 35 27
3 7 9 9 9 10 11 14 15 11 10 11 11 13 11 10 11 0 0 0 6 12 8 7 14 28 44
15 12 13 10 9 9 7 7 6 7 4 1 9 9 11 13 11 10 8 1 1 2 4 6 7 6 5
7 12 11 10 10 11 12 11 12 4 1 1 8 13 15 13 13 9 3 2 5 5 2 0 2 1 1
13 11 7 9 7 8 10 11 8 9 4 2 6 9 11 5 6 1 1 4 5 3 3 11 6 1 1
9 9 8 9 9 9 9 10 10 6 8 7 11 7 3 0 0 0 9 6 4 4 2 9 0 0 1
7 5 7 10 8 6 6 8 6 7 10 12 11 10 6 8 0 0 6 5 7 8 2 2 2 0 1

GFSFLT2_con_sbcape_027.txt.gz
CAPE
0 0 0 0 0 2 2 0 0 13 16 13 19 27 38 41 47 43 56 68 78 79 107 100 112 113 125
2 0 2 1 2 4 3 8 0 1 11 13 22 26 29 36 38 37 45 47 50 79 105 102 99 112 116
1 5 5 6 8 13 0 2 0 0 8 6 15 16 23 32 29 36 37 36 37 48 49 53 68 85 96
2 1 6 25 10 3 1 0 0 0 0 2 12 7 18 13 14 14 19 29 34 40 43 46 52 73 80
11 12 26 2 0 1 2 1 0 0 1 0 1 0 0 2 2 6 12 24 26 28 34 52 61 73 90
31 26 1 1 1 2 0 7 11 0 2 0 0 0 0 0 2 9 14 18 21 22 30 39 52 57 60
16 12 4 0 0 0 3 12 1 0 1 0 0 0 0 0 2 7 10 11 12 17 19 21 32 46 62
4 1 0 1 1 16 4 1 0 0 4 4 0 0 0 0 0 1 5 9 9 11 15 15 21 33 56
7 19 29 24 10 1 0 2 3 0 0 5 0 1 0 0 0 1 0 2 2 7 14 15 15 25 30
1 0 0 0 7 3 3 8 2 1 0 1 1 8 0 0 0 0 0 0 4 6 10 13 16 8 9
0 0 0 0 2 4 3 4 4 0 0 1 0 1 3 0 0 0 0 0 0 0 2 6 15 26 4
0 1 3 4 5 6 5 4 3 1 2 5 0 0 0 0 0 0 0 0 0 0 0 3 21 41 53
4 2 3 3 4 4 4 3 5 1 0 0 0 0 0 0 0 0 4 1 0 0 0 4 1 1 1
2 0 2 2 4 3 3 3 1 0 0 0 0 0 1 0 1 0 2 0 0 1 2 2 2 0 0
3 3 3 3 1 0 1 0 3 1 1 0 0 0 0 1 1 0 1 0 0 2 0 2 0 0 0
1 2 2 1 1 0 2 2 1 1 1 1 0 0 0 0 9 1 0 0 0 2 1 2 0 0 0
2 1 0 0 1 1 1 2 2 1 1 0 0 0 1 1 0 1 0 0 0 1 5 3 5 1 0